TIROS 2 DEB *, 5922

Orbit data source: Space-Track

TIROS 2 DEB *, 5922 is space debris in LEO originally from a launch on Wed, 23 Nov 1960 UTC launched from the Air Force Eastern Test Range (AFETR). Debris objects in space refer to the collection of defunct objects orbiting the Earth. Examples of debris include non-operational satellites, rocket bodies, and fragments generated from explosions, collisions, or faulty payload assembly.

Loading next visibility...
TIROS 2 DEB * details
Identifier
5922, 1960-016E
Orbit
LEO
Last TLE update17 hours ago
Origin
Flag of USGSFC (US)
ManufacturerUnknown
MissionSpacecraft
Bus & MotorUnknown
MassUnknown
Launch date (UTC)
1960-11-23 (64 years ago)
Launch vehicleUnknown
Launch site
Air Force Eastern Test Range (AFETR)
Object type
Payload
Rocket body
Debris
Shape & HBRUnknown
Radar Cross SectionSmall (<0.1 m²)

Expand to show TLE details & history

TLE from 17 hours ago
0 TIROS 2 DEB *
1 05922U 60016E   24355.88314969 -.00000033  00000-0  10899-3 0  9995
2 05922  47.0296 211.0568 0040623  11.0675   4.0392 13.69976025676955
Epoch: 2024-12-20T21:11Z
Definitive object data (Epoch: 2024-12-20T21:11:44.133Z)
Latitude11.01842°
Longitude173.5761°
Altitude969.22 km
Speed7.384 km/s
True Right ascension14h 45m 48s
True Declination10° 57' 21"
Sunlit
Object was in daylight at TLE epoch
Visualization TLE readout
Latitude-13.30901°
Longitude147.56725°
Altitude977.121 km
Speed7.376 km/s
Apparent Right ascension11h 54m 33s
Apparent Declination-67° 14' 60"
Sunlit
Object is in daylight
Visualization observer readout
Local Sidereal Time13:34:31
Azimuth189.94° SSW
Elevation-18.839°
Doppler factor1
Orbital elements
Apogee altitude1,030.813 km
Perigee altitude970.862 km
Semi-major axis7,378.974 km
Eccentricity0.0040623
Inclination47.0296°
RAAN211.0568°
Arg. of periapsis11.0675°
True anomaly4.07216°
Mean anomaly4.0392°
Eccentric anomaly4.05566°
Mean motion3.42412 °/min
BSTAR0.00010899
Orbital period105.14 mins
Loading maneuver chart data...
Loading historical data...
Loading historical data...
Loading historical data...
Loading historical data...
Loading historical data...
Loading historical data...
Loading historical data...

TIROS 2 DEB * Visibility forecast

Observer location: undefined°, undefined

Span
Click to sort rows by Start time (UTC) header in descending order
Start Az.
Max El. time (UTC)
Max El. Az.
Max El.
End time (UTC)
End Az.
10 mins2024-12-21 16:31:22.442Z192.196° SSW2024-12-21 16:36:22.442Z130.611° SE28.004°2024-12-21 16:41:22.442Z76.96° E
11 mins2024-12-21 18:21:22.442Z247.382° WSW2024-12-21 18:26:22.442Z4.886° NNE44.464°2024-12-21 18:32:22.442Z61.308° ENE
11 mins2024-12-21 20:12:22.442Z286.804° WNW2024-12-21 20:17:22.442Z358.918° N35.888°2024-12-21 20:23:22.442Z67.304° ENE
11 mins2024-12-21 22:03:22.442Z301.364° NW2024-12-21 22:08:22.442Z9.309° NNE39.768°2024-12-21 22:14:22.442Z92.998° ESE
11 mins2024-12-21 23:54:22.442Z290.963° WNW2024-12-21 23:59:22.442Z208.253° SW41.508°2024-12-22 00:05:22.442Z137.348° SSE
6 mins2024-12-22 01:46:22.442Z255.152° W2024-12-22 01:48:22.442Z235.63° WSW15.131°2024-12-22 01:52:22.442Z197.896° SSW
|